BRAC ONNESHA (42823 NORAD) Tracking and Keplerian Element Data

This shows tracking and keplerian element data for the satellite.

Feedback or suggestion? Click here.




ElementValue
Catalog42823
NameBRAC ONNESHA
Epoch Orbit5860
Epoch Day198.45938451
Epoch Year2018
RAAN207.168
Inclination51.6342
Eccentricity0.0004854
Argument of Perigee321.7529
Mean Anonmoly38.3123
Mean Motion15.68786586
Decay Rate0.00022941
L11 42823U 98067MX 18198.45938451 .00022941 00000-0 20078-3 0 9993
L22 42823 51.6342 207.1680 0004854 321.7529 38.3123 15.68786586 58605

Live tracking and technical data element details for BRAC ONNESHA (NORAD 42823). BRAC ONNESHA can be tracked NOW for your location showing map with azimuth and elevation plus other details from your city location.

Track the satellite on the map from your city or location and see movement details for azimuth, elevation, latitude, longitude, range, height, and movement on the map or in text.







IsCatalogInMostPopularTable: catalog: 42823, numindb: 86
Update: records affected: 1



GetName: 42823 BRAC ONNESHA

Hit Count: updated at: Fri, 20 Jul 2018 20:37:53 GMT